Showing default

HAWK-11A, 62382

Orbit data source: Space-Track

HAWK-11A, 62382 is a payload satellite owned by HawkEye 360 (US) in LEO that was launched on Sat, 21 Dec 2024 UTC via an FALCON 9 launch vehicle from the Air Force Western Test Range (AFWTR). Payload-class satellites include a variety of spacecraft equipped with specific instruments for various scientific and technological missions. These include communications satellites like Starlink; space stations such as the ISS; scientific satellites like the Hubble; Earth observation satellites from companies like Planet Labs, Umbra, and HawkEye 360; GPS; miniature CubeSats for education and research; and military/defense satellites.

Loading next visibility...
Identifier
62382, 2024-247F
Orbit
LEO
Country
Flag of USUS
Related business
Manufacturer
UTIAS-SFL
Mission
Operational Commercial Sigint
Bus & Motor
HAWK2G, Unknown motor
Mass
31 kg wet, 30 kg dry
Launch date (UTC)
2024-12-21 (1 year ago)
Launch vehicle
FALCON 9
Launch site
Air Force Western Test Range (AFWTR)
Object type
Payload
Rocket body
Debris
Shape & HBR
Box + 2 Pan, 1.0 m
Radar Cross Section
0.240 m², Medium (>0.1 m² and < 1m²)

Expand to show TLE details & history
Last TLE update: 1 day ago

TLE from 1 day ago
0 HAWK-11A
1 62382U 24247F   25349.04546952  .00005622  00000-0  21795-3 0  9990
2 62382  44.9915 215.7724 0005071 199.4144 160.6546 15.27156932 54826
Epoch: 2025-12-15T01:05Z
TLE epoch observation values (Epoch: 2025-12-15T01:05:28.566Z)
Latitude
-0.00004°
Longitude
115.45367°
Altitude
487.597 km
Speed
7.621 km/s
True Right ascension
14h 23m 05s
True Declination
0° 00' 00"
Sunlit
Object was in daylight at epoch
Visualization orbit readout
Latitude
Unknown
Longitude
Unknown
Altitude
Unknown
Speed
Unknown
Apparent Right ascension
Unknown
Apparent Declination
Unknown
Sunlit
N/A
Visualization observer readout
Local Sidereal Time
23:41:40
Azimuth
Unknown
Elevation
Unknown
Doppler factor
Unknown
Orbital elements
Apogee altitude
489.407 km
Perigee altitude
482.446 km
Semi-major axis
6,864.064 km
Eccentricity
0.00051
Inclination
44.9915°
RAAN
215.7724°
Arg. of periapsis
199.4144°
True anomaly
160.67384°
Mean anomaly
160.6546°
Eccentric anomaly
160.66422°
Mean motion
3.81655 °/min
Orbital period
94.33 mins
BSTAR
0.00021795
Loading maneuver chart data...
Computing Atmospheric mass density...
Loading historical data...
Loading historical data...
Loading historical data...
Loading historical data...
Loading historical data...
Loading historical data...
Loading historical data...

Documentation

Showing up to 5 results
|